Wind_Speed
16 17 18 19 19 19 19 19 19 19 19 18 17 16 16 15 15 14 14 15 16 17 17 17 16 16 16 17 17 17 18 18 18 19 20 20 20 21 21 22 24 25 26 27
16 18 18 18 19 18 18 19 19 18 17 16 16 16 15 14 12 14 14 15 15 16 17 17 16 16 16 17 17 18 18 18 19 20 21 21 20 20 21 22 23 24 24 26
16 16 17 17 17 17 18 17 17 17 17 16 16 16 14 12 12 13 13 15 15 16 16 16 17 18 17 17 17 17 18 18 19 20 20 21 21 21 22 23 23 24 25 26
15 16 16 17 17 16 16 16 16 16 16 16 16 15 14 12 12 13 14 14 14 14 15 17 17 18 19 20 19 19 19 19 20 20 21 22 22 23 23 24 24 25 26 26
15 15 16 16 16 16 16 17 17 16 15 16 15 16 14 13 12 13 13 14 15 15 17 17 18 18 19 20 21 21 21 21 21 22 22 23 24 24 24 25 26 26 26 27
14 15 16 16 16 16 16 16 17 16 15 15 15 16 14 13 13 13 13 14 15 16 16 16 17 19 19 20 21 22 22 22 22 23 23 24 25 25 25 26 26 27 27 27
13 14 15 17 17 17 17 16 16 16 16 16 15 16 15 13 13 14 14 14 15 15 15 16 16 18 19 20 21 22 23 23 24 24 24 25 26 26 26 26 27 28 27 27
11 12 14 15 16 17 17 17 16 16 16 16 16 16 15 14 14 14 15 15 15 15 15 16 17 18 20 21 21 22 23 24 24 25 26 26 27 27 28 28 28 28 28 28
10 11 12 15 16 16 16 16 16 17 17 17 16 15 14 14 14 15 15 15 15 15 16 17 19 20 21 21 21 22 23 24 25 25 26 27 28 29 29 29 29 28 28 28
9 10 12 13 15 15 17 17 17 17 17 17 16 16 15 14 14 14 15 15 16 17 18 19 20 22 22 21 22 23 24 25 25 26 26 27 28 28 29 28 28 28 27 27
10 11 11 13 13 14 15 16 17 17 17 17 17 16 15 15 15 16 16 17 18 19 19 20 21 22 21 22 22 23 24 24 25 26 26 26 27 27 28 27 27 27 27 27
9 10 11 12 13 14 15 16 16 16 17 17 18 17 16 16 16 16 17 18 19 20 20 20 21 22 23 23 24 24 24 25 25 25 25 26 26 27 27 26 26 26 26 26
10 11 11 12 13 14 15 16 17 16 16 17 17 17 17 16 16 16 17 18 19 20 21 22 22 22 22 23 24 24 24 25 25 25 25 25 25 26 25 25 25 25 24 25
12 12 12 13 14 14 15 16 16 17 17 17 17 17 16 17 16 17 18 19 20 20 20 21 22 22 22 22 23 24 24 24 24 25 25 25 24 24 24 23 23 23 23 23
13 13 13 13 13 14 15 16 16 16 17 17 17 17 17 18 18 19 19 20 20 21 21 21 22 22 23 23 22 22 23 23 24 25 24 23 23 22 22 22 22 21 22 22
13 13 13 13 12 13 13 14 15 16 16 17 17 17 17 18 18 19 19 20 20 20 20 21 22 22 23 22 22 22 22 23 23 22 21 21 21 21 21 21 21 21 21 21
13 13 13 12 12 12 12 12 13 14 15 16 16 17 17 17 18 18 19 19 19 19 20 20 20 20 20 20 20 20 20 20 20 19 19 20 19 19 19 19 19 19 20 20
11 12 12 12 12 12 12 12 13 14 15 15 17 16 16 17 17 17 18 18 18 18 17 18 19 19 19 19 19 18 18 17 17 17 17 17 17 17 17 17 16 16 16 16
8 9 11 11 11 11 11 12 13 13 13 14 15 16 16 15 16 16 17 16 16 16 16 17 17 17 17 17 16 16 16 15 15 15 15 15 16 16 15 15 14 14 14 14
7 8 9 10 10 11 10 11 11 12 12 11 12 13 13 14 15 15 15 14 14 15 15 16 16 15 15 14 14 14 14 14 14 15 15 15 15 14 13 13 13 13 13 13
6 7 7 8 9 9 9 10 10 10 10 10 11 11 12 14 13 12 12 13 13 13 13 13 14 14 13 13 13 12 12 12 13 13 13 13 12 12 12 12 12 12 12 11
5 5 5 6 6 6 8 8 9 9 9 9 10 10 11 11 11 11 11 11 11 11 11 12 12 13 12 12 12 11 10 11 11 11 11 11 11 11 11 11 11 11 10 8
4 5 5 5 5 6 7 7 8 8 8 8 9 9 9 10 11 11 10 10 11 10 11 11 11 12 12 11 11 10 9 9 10 9 9 10 10 10 10 10 10 9 8 7
5 5 5 5 6 6 7 8 8 8 7 7 8 8 9 9 9 9 9 10 9 9 9 10 10 10 11 10 10 10 9 9 9 9 9 10 10 10 10 10 9 9 8 8
5 5 5 6 6 6 7 8 8 8 7 8 8 8 9 8 7 8 8 8 8 8 9 9 9 9 10 9 9 9 9 8 8 8 9 10 10 11 11 11 11 10 10 9
5 5 5 5 5 6 7 7 7 7 7 8 8 8 8 8 8 8 8 8 8 8 8 8 9 9 9 9 8 8 8 8 8 8 9 9 10 10 11 11 11 11 11 11
Wind_Direction
201 202 204 208 212 217 220 220 222 226 233 237 240 244 250 253 256 261 267 269 270 273 275 279 281 283 283 283 282 281 281 280 279 280 279 278 277 276 276 275 275 276 275 274
200 202 206 209 213 218 221 221 224 230 235 238 241 246 252 254 261 261 263 267 272 275 276 283 284 280 281 283 283 282 282 280 278 279 280 280 280 279 278 279 278 279 278 277
201 203 207 208 211 216 218 222 227 234 239 243 248 253 255 258 270 269 267 269 278 281 279 283 285 282 280 281 282 281 281 282 281 280 280 280 281 281 282 282 281 281 281 280
201 205 207 210 212 216 221 226 232 240 245 250 254 257 260 267 272 275 276 273 279 279 278 280 283 284 280 279 280 280 282 285 285 284 283 283 283 283 283 283 283 283 283 282
203 208 210 211 215 221 226 232 237 244 250 254 257 263 268 271 274 278 281 279 279 279 279 281 283 284 285 283 280 280 281 284 284 283 283 282 282 283 283 284 283 283 283 283
210 215 218 218 222 228 234 239 244 248 253 257 261 268 271 271 279 282 286 286 281 280 283 283 285 285 286 285 283 281 281 282 283 284 284 283 283 284 284 285 285 284 284 283
217 222 224 224 227 232 238 243 248 251 255 260 265 271 275 276 281 285 288 288 285 285 286 286 289 289 287 285 284 283 282 282 283 284 285 285 285 286 286 286 286 285 284 282
227 227 229 228 230 236 240 246 250 255 260 264 266 271 277 281 284 287 289 287 287 287 288 290 291 292 290 287 287 286 285 286 285 286 287 287 288 288 288 287 286 285 284 282
230 229 227 228 233 239 244 248 254 259 263 265 267 273 276 279 283 287 289 290 290 288 288 289 293 293 291 290 288 286 285 285 286 287 288 288 288 288 288 287 287 286 284 283
236 232 227 230 235 242 248 251 255 259 263 265 268 274 279 282 285 287 288 290 293 292 289 288 290 292 292 291 289 288 287 286 286 287 289 290 289 289 288 288 287 286 284 283
244 243 238 236 239 245 250 253 256 261 266 270 274 277 282 286 286 287 289 289 292 292 293 289 291 292 292 290 291 291 291 291 290 290 291 291 290 289 289 288 287 286 285 284
250 253 247 242 242 245 252 257 261 264 268 271 278 283 284 286 287 286 287 290 293 292 293 293 295 296 294 290 291 291 292 293 293 293 293 292 291 290 290 290 288 287 285 284
256 260 258 250 246 248 254 257 260 264 268 272 279 284 285 286 289 289 290 292 293 294 295 295 295 298 297 294 293 292 293 294 294 294 295 294 293 292 291 290 289 287 285 284
258 260 260 256 254 254 256 260 263 265 268 273 278 281 285 285 287 291 293 294 296 297 298 297 296 298 299 298 296 294 293 295 295 296 297 295 294 293 292 291 289 287 286 285
258 259 262 259 257 259 260 261 264 267 269 274 277 279 283 284 286 290 294 296 299 301 299 300 303 301 301 300 297 296 296 297 297 299 298 296 295 295 294 292 290 289 288 288
261 259 260 261 261 262 264 265 265 266 269 274 277 282 286 288 289 292 296 299 301 303 304 305 306 302 302 301 298 296 297 299 300 300 299 299 299 299 297 293 291 290 290 291
260 256 253 257 260 263 264 264 264 267 272 277 282 285 288 293 296 297 299 300 303 305 307 307 307 306 307 304 301 299 299 300 300 301 302 303 304 304 300 298 295 294 293 293
260 255 257 261 266 267 266 266 269 272 276 278 283 289 292 295 298 301 302 303 303 305 308 311 310 310 309 308 306 304 304 303 304 307 307 308 310 308 305 303 301 300 300 300
262 261 263 263 268 271 268 273 275 279 279 280 284 290 293 296 299 301 304 307 310 309 310 313 312 311 311 312 310 309 309 308 308 310 312 312 314 314 313 313 312 311 309 307
265 265 268 267 270 276 277 278 282 285 283 286 289 294 298 301 302 303 306 309 311 312 312 314 316 316 315 314 312 313 315 314 311 311 313 316 318 318 318 319 319 318 315 310
272 272 273 275 275 275 279 281 284 289 292 292 295 296 300 304 306 308 311 310 312 314 316 320 321 323 322 320 319 319 318 317 317 319 322 325 326 326 326 327 327 324 322 319
280 277 280 282 282 280 285 286 284 290 298 299 301 301 304 308 313 313 315 315 317 317 317 322 326 330 330 328 327 325 325 327 329 331 334 336 335 335 336 338 338 335 334 336
291 291 293 297 296 289 292 291 287 291 302 302 300 303 307 309 314 317 319 320 321 322 323 327 329 331 333 334 336 336 335 337 341 343 345 347 347 346 348 350 353 359 5 10
302 294 286 289 293 296 296 295 295 300 300 299 302 305 311 314 316 320 323 325 326 325 326 329 331 333 336 339 342 344 343 343 347 352 356 359 2 5 8 13 20 26 36 45
301 296 295 291 293 299 303 300 296 294 294 298 304 308 311 316 316 318 324 328 331 332 332 334 336 338 341 344 347 348 351 355 2 7 10 14 19 24 30 37 43 48 53 58
307 306 301 300 298 298 309 310 302 296 292 295 300 306 311 316 318 320 327 334 338 343 348 349 348 350 352 355 357 1 9 19 22 23 24 29 33 37 42 45 50 56 60 62
Height
5813 5817 5818 5821 5823 5826 5829 5831 5833 5836 5837 5839 5840 5842 5843 5844 5844 5845 5845 5845 5844 5844 5844 5843 5843 5842 5841 5841 5841 5841 5840 5840 5839 5838 5838 5837 5837 5836 5835 5834 5833 5832 5831 5831
5813 5815 5817 5819 5822 5825 5827 5830 5832 5834 5836 5837 5838 5840 5841 5841 5841 5842 5842 5842 5841 5841 5841 5840 5840 5840 5839 5838 5837 5837 5836 5835 5834 5834 5833 5832 5831 5830 5829 5828 5827 5826 5825 5824
5812 5815 5816 5819 5821 5824 5826 5829 5831 5832 5834 5835 5836 5838 5839 5839 5839 5839 5839 5839 5838 5838 5837 5837 5836 5836 5835 5834 5833 5832 5831 5830 5829 5828 5827 5826 5825 5824 5823 5822 5821 5820 5819 5818
5811 5814 5816 5818 5821 5823 5825 5827 5829 5830 5832 5833 5834 5835 5836 5836 5836 5836 5835 5835 5835 5834 5834 5833 5832 5832 5831 5830 5829 5828 5827 5825 5824 5823 5821 5820 5819 5818 5817 5816 5814 5813 5812 5811
5811 5813 5815 5818 5820 5822 5824 5825 5827 5828 5829 5830 5831 5831 5833 5833 5833 5833 5833 5832 5831 5830 5830 5829 5828 5827 5826 5825 5824 5823 5822 5820 5819 5817 5816 5815 5813 5812 5810 5809 5808 5806 5805 5803
5810 5812 5814 5817 5819 5820 5822 5824 5825 5825 5826 5827 5828 5828 5829 5830 5830 5830 5829 5828 5827 5826 5825 5824 5823 5822 5821 5820 5818 5817 5816 5814 5813 5811 5810 5808 5807 5805 5804 5802 5801 5799 5798 5796
5809 5811 5812 5814 5816 5819 5820 5822 5823 5823 5823 5825 5825 5825 5827 5827 5826 5826 5825 5824 5824 5822 5821 5820 5819 5818 5816 5815 5813 5812 5810 5808 5806 5805 5803 5802 5800 5799 5797 5795 5793 5792 5790 5789
5808 5810 5811 5813 5815 5816 5818 5820 5821 5821 5822 5822 5822 5822 5824 5823 5823 5822 5822 5821 5820 5819 5817 5816 5815 5813 5811 5810 5808 5806 5804 5802 5800 5798 5797 5795 5794 5792 5790 5788 5786 5784 5782 5781
5807 5809 5810 5811 5812 5814 5815 5817 5818 5818 5818 5819 5819 5819 5820 5820 5819 5819 5818 5817 5816 5815 5813 5812 5810 5809 5806 5804 5802 5800 5798 5796 5794 5792 5790 5788 5786 5784 5782 5780 5778 5776 5774 5773
5806 5807 5808 5809 5811 5812 5813 5814 5815 5815 5815 5815 5816 5816 5817 5816 5816 5815 5815 5814 5812 5811 5809 5807 5806 5803 5801 5799 5797 5795 5792 5790 5787 5785 5783 5781 5779 5777 5775 5773 5771 5769 5767 5765
5804 5805 5806 5807 5808 5808 5810 5811 5811 5811 5811 5812 5811 5815 5813 5813 5812 5811 5811 5809 5808 5806 5805 5803 5801 5798 5796 5793 5791 5789 5786 5784 5781 5778 5776 5773 5771 5769 5767 5765 5763 5761 5759 5758
5802 5803 5803 5804 5805 5805 5806 5807 5807 5808 5808 5808 5808 5812 5809 5808 5808 5807 5806 5805 5803 5802 5800 5798 5795 5793 5790 5788 5785 5783 5780 5777 5774 5772 5769 5766 5764 5762 5760 5758 5755 5754 5752 5750
5799 5800 5800 5801 5803 5803 5802 5802 5803 5804 5804 5804 5805 5808 5805 5804 5803 5802 5801 5800 5798 5797 5795 5792 5790 5787 5784 5782 5779 5776 5774 5771 5768 5765 5762 5759 5757 5754 5752 5750 5748 5747 5745 5743
5796 5796 5798 5798 5798 5798 5798 5799 5799 5800 5800 5800 5801 5801 5801 5800 5799 5798 5797 5795 5793 5791 5789 5786 5784 5781 5778 5775 5772 5770 5767 5764 5762 5759 5756 5753 5750 5748 5746 5743 5741 5740 5738 5736
5792 5793 5793 5793 5794 5794 5794 5795 5795 5796 5796 5797 5797 5796 5797 5796 5795 5794 5793 5791 5788 5786 5783 5781 5778 5775 5772 5769 5766 5763 5761 5758 5755 5752 5749 5746 5744 5741 5739 5737 5735 5733 5732 5730
5788 5789 5790 5790 5790 5790 5790 5791 5791 5792 5792 5792 5792 5792 5792 5791 5790 5789 5787 5785 5783 5780 5778 5775 5772 5769 5766 5763 5760 5757 5755 5752 5749 5746 5743 5740 5738 5736 5733 5731 5729 5727 5726 5724
5784 5785 5786 5786 5787 5787 5787 5788 5788 5788 5788 5789 5788 5789 5787 5786 5785 5784 5782 5780 5777 5775 5773 5770 5767 5764 5761 5758 5755 5752 5749 5746 5743 5741 5738 5735 5733 5730 5728 5725 5723 5721 5720 5718
5780 5781 5782 5783 5784 5784 5786 5784 5785 5785 5785 5785 5784 5783 5783 5782 5781 5779 5777 5775 5773 5770 5768 5765 5762 5759 5756 5753 5750 5747 5744 5741 5739 5736 5734 5731 5728 5726 5723 5721 5719 5717 5715 5713
5777 5778 5779 5780 5780 5781 5782 5782 5782 5782 5781 5781 5781 5780 5779 5778 5777 5775 5773 5771 5769 5766 5764 5761 5758 5755 5752 5749 5746 5743 5740 5737 5735 5733 5730 5727 5725 5722 5719 5717 5715 5713 5711 5709
5776 5776 5777 5777 5778 5779 5781 5780 5779 5780 5779 5778 5777 5776 5776 5774 5773 5772 5769 5767 5765 5763 5760 5757 5754 5751 5748 5746 5743 5740 5737 5735 5732 5729 5727 5724 5721 5719 5717 5714 5712 5710 5708 5706
5775 5775 5775 5776 5776 5777 5777 5777 5777 5778 5777 5775 5774 5773 5772 5771 5770 5768 5765 5763 5761 5759 5757 5754 5752 5749 5746 5743 5740 5737 5735 5732 5730 5727 5724 5722 5719 5717 5714 5712 5710 5707 5705 5704
5775 5775 5775 5775 5775 5777 5775 5774 5775 5775 5773 5772 5771 5770 5769 5768 5766 5764 5762 5761 5759 5756 5754 5752 5749 5746 5743 5740 5738 5735 5733 5730 5728 5725 5722 5720 5717 5715 5713 5710 5708 5706 5704 5702
5775 5775 5774 5774 5775 5773 5773 5772 5772 5771 5771 5770 5769 5768 5767 5765 5764 5762 5760 5758 5756 5754 5752 5749 5747 5744 5741 5739 5736 5733 5731 5729 5726 5724 5722 5719 5717 5714 5712 5710 5707 5705 5703 5702
5774 5773 5773 5772 5772 5771 5771 5770 5770 5769 5768 5768 5767 5766 5764 5763 5761 5760 5758 5756 5754 5752 5750 5748 5745 5743 5740 5738 5735 5733 5730 5728 5726 5724 5721 5719 5717 5714 5712 5710 5707 5706 5704 5703
5774 5772 5772 5771 5771 5770 5769 5768 5767 5767 5766 5765 5765 5763 5762 5761 5759 5758 5756 5754 5753 5751 5749 5747 5744 5742 5740 5737 5735 5732 5730 5728 5726 5724 5722 5720 5717 5715 5713 5711 5709 5708 5706 5705
5772 5772 5771 5770 5769 5768 5768 5766 5765 5764 5764 5763 5762 5761 5760 5759 5757 5756 5755 5753 5752 5750 5748 5746 5744 5741 5739 5737 5735 5732 5730 5728 5727 5725 5723 5721 5719 5717 5715 5714 5712 5711 5709 5708